IRIDIUM 33 DEB, 33884

Orbit data source: Space-Track

IRIDIUM 33 DEB, 33884 is space debris in LEO originally from a launch on Sun, 14 Sep 1997 UTC launched from the Tyuratam Missile And Space Complex (TTMTR). The debris from Iridium 33, an American commercial communications satellite, has been tracked extensively since its accidental collision with the defunct Russian satellite Cosmos 2251 in 2009. This event, occurring at high speed in low Earth orbit (LEO), generated thousands of pieces of space debris, significantly increasing the risk of further collisions. The Iridium 33 debris cloud has impacted space traffic management and orbital debris mitigation strategies, making it a subject of ongoing study in space situational awareness.

Loading next visibility...
Identifier
33884, 1997-051BD
Orbit
LEO
Country
Flag of USUS
Related business
Manufacturer
Unknown
Mission
Spacecraft
Bus & Motor
Unknown
Mass
Unknown
Launch date (UTC)
1997-09-14 (28 years ago)
Launch vehicle
Unknown
Launch site
Tyuratam Missile And Space Complex (TTMTR)
Object type
Payload
Rocket body
Debris
Shape & HBR
Unknown shape, 0.2 m
Radar Cross Section
Small (<0.1 m²)

Expand to show TLE details & history
Last TLE update: 3 hours ago

TLE from 3 hours ago
0 IRIDIUM 33 DEB
1 33884U 97051BD  26038.32875079  .00024033  00000-0  32191-2 0  9998
2 33884  86.3717 344.2492 0013333 103.5726  23.6912 14.79252039896834
Epoch: 2026-02-07T07:53Z
TLE epoch observation values (Epoch: 2026-02-07T07:53:24.068Z)
Latitude
52.62561°
Longitude
-96.2909°
Altitude
631.804 km
Speed
7.552 km/s
True Right ascension
10h 38m 03s
True Declination
52° 27' 24"
Sunlit
Object was in full shadow at epoch
Visualization orbit readout
Latitude
Unknown
Longitude
Unknown
Altitude
Unknown
Speed
Unknown
Apparent Right ascension
Unknown
Apparent Declination
Unknown
Sunlit
N/A
Visualization observer readout
Local Sidereal Time
13:02:26
Azimuth
Unknown
Elevation
Unknown
Doppler factor
Unknown
Orbital elements
Apogee altitude
637.93 km
Perigee altitude
619.246 km
Semi-major axis
7,006.725 km
Eccentricity
0.00133
Inclination
86.3717°
RAAN
344.2492°
Arg. of periapsis
103.5726°
True anomaly
23.75268°
Mean anomaly
23.6912°
Eccentric anomaly
23.72193°
Mean motion
3.70059 °/min
Orbital period
97.28 mins
BSTAR
0.0032191
Loading maneuver chart data...
Computing Atmospheric mass density...
Loading historical data...
Loading historical data...
Loading historical data...
Loading historical data...
Loading historical data...
Loading historical data...
Loading historical data...

Documentation

Showing up to 5 results
|